Location: Unspecified
(42.3650°N, 71.1030°W)
Time: 01:41:59
(UTC+00:00)

Explorer 11/Cluster Stage 4 - Pass Details

Date: 25 June 2024
Orbit: 465 x 1215 km, 28.8° (Epoch: 17 July)

Event Time Altitude Azimuth Distance (km) Brightness Sun altitude
Rises 02:31:33 0° 252° (WSW) 4,118 10.5 -17.2°
Reaches altitude 10° 02:34:54 10° 242° (WSW) 3,157 9.7 -17.5°
Maximum altitude 02:41:25 28° 187° (S) 2,044 8.2 -18.1°
Enters shadow 02:43:01 26° 168° (SSE) 2,101 8.2 -18.3°
Drops below altitude 10° 02:47:31 10° 132° (SE) 2,944 - -18.7°
Sets 02:50:32 0° 121° (ESE) 3,799 - -19.0°
